Outwar Sigil TimeFrame

Sigil TimeFrame

95 Gods Updated: 2019-02-20 05:15:01
NameTime LeftWindow Opens
Jade Dragonite1d 20:012019-02-18 10:48:00
Dlanod, the Crazed Chancellor1d 08:192019-02-18 22:30:00
Q-SEC Commander1d 07:212019-02-18 23:28:00
Balerion, Dragon of Dread1d 05:482019-02-19 01:01:00
Threk, King of Lords1d 05:442019-02-19 01:05:00
King Ashnar, Lord of the Unliving1d 04:322019-02-19 02:17:00
Hackerphage, Protector of the Gateway0d 21:492019-02-19 09:00:00
Old World Drake0d 19:332019-02-19 11:16:00
Lady Ariella0d 16:282019-02-19 14:21:00
Esquin, the Kinetic Master0d 16:232019-02-19 14:26:00
Crantos, Defender of Ultimation0d 13:432019-02-19 17:06:00
The Emerald Assassin0d 11:352019-02-19 19:14:00
Mistress of the Sword0d 10:052019-02-19 20:44:00
Raiyar, the Shadow Master0d 07:272019-02-19 23:22:00
Gnorb0d 07:142019-02-19 23:35:00
Viserion, the Necrodragon0d 05:592019-02-20 00:50:00
Amalgamated Apparition0d 03:542019-02-20 02:55:00
Brutalitar, Lord of the Underworld0d 03:262019-02-20 03:23:00
Shadow0d 03:082019-02-20 03:41:00
Synge, The Red Dragon0d 02:282019-02-20 04:21:00
Vitkros, Hydra of the Deep0d 01:212019-02-20 05:28:00
Wanhiroeaz the Devourer0d 00:282019-02-20 07:18:00
Rotborn, Eater of the Dead0d 00:472019-02-20 07:37:00
Felroc, Overseer of Hellfire0d 01:062019-02-20 07:56:00
Ebliss, Fallen Angel of Despair0d 02:292019-02-20 09:19:00
Ancient Magus Tarkin0d 02:302019-02-20 09:20:00
Garland, The Lord Keeper0d 03:082019-02-20 09:58:00
Terrance, Rebel of Rallis0d 03:142019-02-20 10:04:00
Baron Mu, Dark Rider of the Undead0d 03:272019-02-20 10:17:00
Melt Bane, The Forbidden Demon Dragon0d 03:512019-02-20 10:41:00
Ganja the Stone Golem0d 05:412019-02-20 12:31:00
Gorganus of the Wood0d 07:092019-02-20 13:59:00
Numerocure, The Black Messenger of Evil0d 07:132019-02-20 14:03:00
Freezebreed, The Frozen Manipulator0d 07:302019-02-20 14:20:00
Nessam0d 08:352019-02-20 15:25:00
Straya, the Underworld Ruler0d 09:232019-02-20 16:13:00
Lord Varan0d 11:372019-02-20 18:27:00
Crane0d 12:152019-02-20 19:05:00
Pinosis0d 12:162019-02-20 19:06:00
Anvilfist0d 12:352019-02-20 19:25:00
Karvaz, Lord of Alsayic0d 14:582019-02-20 21:48:00
Lady Chaos, Queen of the Abyss0d 15:532019-02-20 22:43:00
Zikkir the Dark Archer0d 15:562019-02-20 22:46:00
Hyrak, Bringer of Nightmares0d 17:322019-02-21 00:22:00
Tylos, The Lord Master0d 17:362019-02-21 00:26:00
Skarthul the Avenged0d 18:072019-02-21 00:57:00
Tsort0d 18:502019-02-21 01:40:00
Lord Sibannac0d 20:462019-02-21 03:36:00
Detox0d 22:192019-02-21 05:09:00
Dreg nor, Keeper of the Infernal Essence0d 23:002019-02-21 05:50:00
Bloodchill the Grizzly0d 23:052019-02-21 05:55:00
Emperor Neudeus, Controller of the Universe0d 23:282019-02-21 06:18:00
Rancid, Lord of Thugs1d 02:392019-02-21 09:29:00
Akkel the Enflamed Warrior1d 02:412019-02-21 09:31:00
Sarcrina the Astral Priestess1d 04:102019-02-21 11:00:00
Lord Narada1d 04:542019-02-21 11:44:00
Volgan the Living Ironbark1d 07:492019-02-21 14:39:00
Jorun the Blazing Swordsman1d 08:582019-02-21 15:48:00
Grivvek, Protector of the Brood1d 10:002019-02-21 16:50:00
Nayark the Mummified Sorcerer1d 10:412019-02-21 17:31:00
Archdevil Yirkon1d 10:502019-02-21 17:40:00
Traxodon the Plaguebringer1d 11:292019-02-21 18:19:00
Varsanor, Master of Darkness1d 12:462019-02-21 19:36:00
Sylvanna TorLai1d 14:592019-02-21 21:49:00
Jazzmin, Maiden of Vitality1d 15:012019-02-21 21:51:00
Bolkor, the Holy Master1d 18:132019-02-22 01:03:00
Skybrine The Inescapable1d 18:492019-02-22 01:39:00
Smoot the Yeti1d 19:312019-02-22 02:21:00
Nar Zhul, Slayer of All1d 21:212019-02-22 04:11:00
Sigil, Lich of Woe2d 02:012019-02-22 08:51:00
Xynak, the Arcane Master2d 02:382019-02-22 09:28:00
Lord Suka2d 02:542019-02-22 09:44:00
Slashbrood, Devourer of the Blackness2d 02:552019-02-22 09:45:00
Murderface2d 03:212019-02-22 10:11:00
Samatha Dark-Soul2d 03:252019-02-22 10:15:00
Anguish2d 05:152019-02-22 12:05:00
Howldroid, Tormentor of the Pit2d 06:342019-02-22 13:24:00
Windstrike The Vile2d 09:272019-02-22 16:17:00
Zertan, The Collector2d 13:452019-02-22 20:35:00
Ag Nabak the Abomination2d 14:172019-02-22 21:07:00
Keeper of Nature2d 14:552019-02-22 21:45:00
Ormsul the Putrid2d 21:242019-02-23 04:14:00
Lord Xordam2d 21:302019-02-23 04:20:00
Quiver, The Renegade3d 03:402019-02-23 10:30:00
Great Lord Ganeshan3d 13:022019-02-23 19:52:00
Animated Captain3d 17:142019-02-24 00:04:00
Crolvak, the Fire Master4d 06:362019-02-24 13:26:00
Nafir, God of Desolation4d 08:432019-02-24 15:33:00
Kro Shuk, Doomslayer4d 15:282019-02-24 22:18:00
Lacuste of the Swarm4d 19:432019-02-25 02:33:00
Kretok, Descendant of Nature4d 23:202019-02-25 06:10:00
Shaik, Servant of Arkron228d 02:242018-07-07 04:25:00
Rook, Hand of Arkron226d 04:142018-07-09 02:35:00
Noxious Slug19d 07:002019-01-31 23:49:00
Beast of Cards18d 12:552019-02-01 17:54:00